Weather History for Altus AFB, OK

Change the Weather History Date:

Friday, August 8, 2014

  Actual Average Record
Temperature  
Mean Temperature 86 °F -  
Max Temperature 80 °F 94 °F 109 °F (2011)
Min Temperature 75 °F 70 °F 66 °F (1997)
Cooling Degree Days 20    
Growing Degree Days 36 (Base 50)    
Moisture  
Dew Point 67 °F    
Average Humidity 53    
Maximum Humidity 78    
Minimum Humidity 32    
Precipitation  
Precipitation 0.00 in - - ()
Sea Level Pressure  
Sea Level Pressure 29.87 in    
Wind  
Wind Speed 11 mph (ENE)    
Max Wind Speed 18 mph    
Max Gust Speed 28 mph    
Visibility 10 miles    
Events      
Averages and records for this station are not official NWS values.
T = Trace of Precipitation, MM = Missing Value Source: NWS Daily Summary

Daily Weather History Graph

Daily Weather History Graph

Search for Another Location

Airport:

Trip Planner

Search our weather history database for the weather conditions in past years. The results will help you decide how hot, cold, wet, or windy it might be!

Date:

Astronomy

Aug. 08, 2014 Rise Set
Actual Time 6:52 AM CDT 8:32 PM CDT
Civil Twilight 6:25 AM CDT 8:59 PM CDT
Nautical Twilight 5:52 AM CDT 9:32 PM CDT
Astronomical Twilight 5:17 AM CDT 10:06 PM CDT
Moon 6:44 PM CDT (8/8) 4:28 AM CDT (8/8)
Length of Visible Light 14h 34m
Length of Day
13h 40m
Waxing Gibbous, 94% of the Moon is Illuminated
Aug 8
Waxing Gibbous
Aug 10
Full
Aug 17
Last Quarter
Aug 25
New
Sep 2
First Quarter

Hourly Weather History & Observations

Time (CDT) Temp. Heat Index Dew Point Humidity Pressure Visibility Wind Dir Wind Speed Gust Speed Precip Events Conditions
12:58 AM 84.2 °F 88.4 °F 69.8 °F 62% 29.78 in 10.0 mi East 10.4 mph - N/A   Clear
1:58 AM 84.2 °F 88.4 °F 69.8 °F 62% 29.78 in 10.0 mi East 10.4 mph - N/A   Clear
2:58 AM 84.2 °F 88.4 °F 69.8 °F 62% 29.78 in 10.0 mi East 10.4 mph - N/A   Clear
3:58 AM 84.2 °F 88.4 °F 69.8 °F 62% 29.78 in 10.0 mi East 10.4 mph - N/A   Clear
4:58 AM 84.2 °F 88.4 °F 69.8 °F 62% 29.78 in 10.0 mi East 10.4 mph - N/A   Clear
5:58 AM 84.2 °F 88.4 °F 69.8 °F 62% 29.78 in 10.0 mi East 10.4 mph - N/A   Clear
6:58 AM 84.2 °F 88.4 °F 69.8 °F 62% 29.78 in 10.0 mi East 10.4 mph - N/A   Clear
7:58 AM 75.0 °F - 67.8 °F 78% 29.88 in 10.0 mi NE 18.4 mph 27.6 mph N/A   Mostly Cloudy
8:58 AM 76.5 °F - 67.3 °F 73% 29.91 in 10.0 mi NE 16.1 mph - N/A   Scattered Clouds
9:58 AM 84.2 °F 87.3 °F 67.8 °F 58% 29.91 in 10.0 mi ENE 16.1 mph 20.7 mph N/A   Clear
10:58 AM 90.1 °F 93.1 °F 66.6 °F 46% 29.92 in 10.0 mi ENE 11.5 mph - N/A   Partly Cloudy
11:58 AM 92.7 °F 96.2 °F 67.5 °F 43% 29.92 in 10.0 mi East 11.5 mph - N/A   Scattered Clouds
12:58 PM 91.0 °F 94.3 °F 66.9 °F 45% 29.91 in 10.0 mi East 11.5 mph - N/A   Scattered Clouds
1:58 PM 91.6 °F 95.2 °F 67.5 °F 45% 29.91 in 10.0 mi Variable 6.9 mph - N/A   Mostly Cloudy
2:58 PM 91.4 °F 97.3 °F 70.5 °F 50% 29.90 in 10.0 mi SE 10.4 mph - N/A   Scattered Clouds
3:58 PM 95.0 °F 99.0 °F 66.9 °F 40% 29.86 in 10.0 mi East 8.1 mph - N/A   Scattered Clouds
4:58 PM 96.1 °F 97.8 °F 63.3 °F 34% 29.85 in 10.0 mi East 4.6 mph - N/A   Scattered Clouds
5:58 PM 95.2 °F 95.5 °F 60.8 °F 32% 29.86 in 10.0 mi ENE 6.9 mph - N/A   Partly Cloudy
6:58 PM 95.0 °F 95.2 °F 60.8 °F 32% 29.88 in 10.0 mi East 10.4 mph - N/A   Partly Cloudy
7:58 PM 91.4 °F 92.1 °F 62.6 °F 38% 29.88 in 10.0 mi East 10.4 mph - N/A   Mostly Cloudy
8:58 PM 82.9 °F 84.6 °F 64.6 °F 54% 29.90 in 10.0 mi West 5.8 mph - N/A   Scattered Clouds
9:58 PM 82.9 °F 84.6 °F 64.6 °F 54% 29.94 in 10.0 mi NW 12.7 mph - N/A   Scattered Clouds
10:58 PM 80.6 °F 82.9 °F 66.7 °F 63% 29.94 in 10.0 mi NW 13.8 mph - N/A   Partly Cloudy
11:58 PM 79.5 °F - 63.3 °F 58% 29.93 in 10.0 mi NNW 11.5 mph - N/A   Mostly Cloudy